Das Wetter in  D-61279 Heinzenberg / Taunus





Wetter Minimum- & Maximum-Werte im Mrz 2007

Standort: Heinzenberg / Taunus - Höhe 297 m         8 24' 1" Ost 50 21' 51" Nord
(   3-stündige Aktualisierung    letzte Aktualisierung um 19:04 am 31.03.2007  )


Messgrösse

Minimum

Maximum

Durchschnitt

Temperatur West /
Luftfeuchte West
Anklicken für Monats-Diagramm

-4,2 C

07:16
20.03.2007

30 %

16:34
28.03.2007

19,6 C

16:42
26.03.2007

97 %

19:43
22.03.2007

Temp

6,4 C

Feuchte

75 %

Temperatur Ost /
Luftfeuchte Ost
Anklicken für Monats-Diagramm

-3,4 C

06:26
20.03.2007

--

--
--

20,2 C

17:27
14.03.2007

--

--
--

6,5 C

--

Luftdruck Anklicken für Monats-Diagramm

990,0 hPa

14:20
19.03.2007

1038,8 hPa

23:28
10.03.2007

1016,0 hPa

Taupunkt

-5,6 C

07:16
20.03.2007

7,7 C

10:54
01.03.2007

1,9 C

Windchill
( gefühlte Temperatur )

-11,4 C

03:35
02.03.2007

19,6 C

16:42
26.03.2007

3,6 C

Windgeschwindigkeit /
Windrichtung
Anklicken für Monats-Diagramm

---

60,7 km/h / W-SW

14:11
18.03.2007

9,0 km/h
W

Helligkeit /
Sonnenschein
Anklicken für Monats-Diagramm
Anklicken für Monats-Diagramm

Sonnenschein:

160:10 Stunden

Max: 10:55 Std am
12.03.2007

92,5 klux

13:46
25.03.2007

26,4 klux

Solarstrahlung Anklicken für Monats-Diagramm

---

633 W/m

13:46
25.03.2007

196 W/m

Regenmenge
    Mrz 2007
Anklicken für Monats-Diagramm

Insgesamt 60,5 l/m

in 75:03 Stunden
an 20 Tagen

15,8 l/m

04:53
22.03.2007

Gesamtmenge

60,5 l/m

Regen-Tage
    Mrz 2007
Anklicken für Monats-Diagramm

>   0 mm/Tag

>   2 mm/Tag

>   5 mm/Tag

> 10 mm/Tag

> 20 mm/Tag

20 Tage     
9 Tage     
5 Tage     
2 Tage     
0 Tage     

Eisige Tage Mrz 2007 / 2006

Tmin ≤ -10C     

0 Tage

/

0 Tage

Eistage Mrz 2007 / 2006

Tmax <     0C     

0 Tage

/

- - Tage

Frosttage Mrz 2007 / 2006

Tmin ≤     0C     

10 Tage

/

- - Tage

Kalte Tage Mrz 2007 / 2006

Tmax <   10C     

9 Tage

/

- - Tage

Warme Tage Mrz 2007 / 2006

Tmax ≥   20C     

0 Tage

/

0 Tage

Sommertage Mrz 2007 / 2006

Tmax ≥   25C     

0 Tage

/

- - Tage

Heisse Tage Mrz 2007 / 2006

Tmax ≥   30C     

0 Tage

/

- - Tage


Monatsdiagramm Mrz 2007

Die Kurven zeigen den Durchschnittswert des jeweiligen Tages an


Wetter-Monatsübersicht Mrz 2007
Datum
  Temperatur
   Luftdruck
   Wind
  Regen
   Luftfeuchte
   Helligkeit

Sonnen-
schein


Temp.

Min.
Temp.

Max.
Temp.


Luftdruck

Min.
Luftdruck

Max.
Luftdruck

-Geschw.
Haupt-Richtg.

Max.
Wind

Menge /
Dauer


Feuchte

Min.
Feuchte

Max.
Feuchte


Helligkeit

Max.
Helligkeit

1.
Mrz
7,8 C5,2 C
23:50
10,7 C
12:44
995,0 hPa991,1 hPa
09:59
998,5 hPa
01:54
29,4 km/h
W-SW
49,5 km/h
15:44  
7,3 l/m
4:16 Stunden
81 %65 %
13:39
93 %
11:29
16,5 klux69,3 klux
12:14
2:19 Std 
2.
Mrz
5,3 C1,9 C
22:56
10,2 C
14:45
1005,8 hPa997,8 hPa
00:00
1010,5 hPa
21:20
17,3 km/h
W
46,6 km/h
03:35  
2,3 l/m
2:40 Stunden
74 %47 %
14:45
93 %
06:40
23,0 klux81,0 klux
11:55
3:10 Std 
3.
Mrz
5,3 C2,1 C
00:01
9,3 C
11:31
1004,8 hPa997,6 hPa
07:41
1018,8 hPa
23:52
25,0 km/h
W
59,8 km/h
16:26  
10,3 l/m
8:50 Stunden
86 %69 %
11:26
95 %
06:11
8,3 klux54,7 klux
09:41
30 Min 
4.
Mrz
6,5 C-0,5 C
08:17
14,5 C
15:12
1019,6 hPa1013,9 hPa
22:53
1023,4 hPa
08:17
6,9 km/h
O-SO
33,5 km/h
23:48  
---
76 %53 %
14:27
95 %
09:52
36,7 klux83,6 klux
12:07
8:20 Std 
5.
Mrz
8,6 C4,6 C
23:29
11,8 C
14:18
1016,9 hPa1012,0 hPa
01:58
1022,4 hPa
21:59
18,6 km/h
W-SW
45,0 km/h
10:58  
---
10 Minuten
67 %49 %
15:03
76 %
09:58
16,4 klux89,1 klux
13:23
1:25 Std 
6.
Mrz
8,6 C5,2 C
00:04
12,6 C
12:24
1013,7 hPa1007,9 hPa
23:55
1021,6 hPa
00:09
13,4 km/h
SW
35,6 km/h
10:34  
1,5 l/m
3:40 Stunden
67 %52 %
12:24
87 %
23:25
22,6 klux88,9 klux
11:39
2:55 Std 
7.
Mrz
7,5 C1,2 C
23:40
11,6 C
15:40
1005,4 hPa1002,3 hPa
14:10
1010,7 hPa
23:40
2,5 km/h
W-SW
27,8 km/h
00:50  
1,2 l/m
3:15 Stunden
81 %65 %
17:35
91 %
10:00
16,4 klux87,4 klux
13:30
1:45 Std 
8.
Mrz
5,1 C0,0 C
03:01
12,4 C
15:16
1020,3 hPa1010,8 hPa
00:00
1029,2 hPa
23:57
4,7 km/h
W-NW
24,7 km/h
13:36  
---
5 Minuten
80 %56 %
16:11
94 %
07:51
25,7 klux75,1 klux
12:11
4:35 Std 
9.
Mrz
5,4 C0,3 C
03:32
11,0 C
11:57
1027,1 hPa1023,1 hPa
16:42
1029,5 hPa
03:32
9,3 km/h
W-SW
35,3 km/h
12:57  
5,5 l/m
3:46 Stunden
81 %60 %
12:47
94 %
20:52
19,7 klux57,0 klux
10:02
2:45 Std 
10.
Mrz
5,0 C0,5 C
23:28
12,0 C
16:08
1036,2 hPa1029,0 hPa
00:08
1038,8 hPa
23:28
6,6 km/h
W
28,1 km/h
11:23  
---
78 %51 %
17:03
93 %
08:38
36,5 klux91,5 klux
12:18
7:50 Std 
11.
Mrz
5,7 C-1,6 C
06:29
16,7 C
15:34
1035,5 hPa1031,6 hPa
16:49
1038,8 hPa
00:19
1,6 km/h
SO
12,6 km/h
13:34  
---
74 %43 %
15:54
92 %
08:54
40,3 klux69,2 klux
12:24
10:16 Std 
12.
Mrz
6,8 C-1,6 C
06:20
17,9 C
15:15
1028,6 hPa1024,2 hPa
16:50
1033,5 hPa
00:15
3,3 km/h
SO
26,0 km/h
13:00  
---
70 %40 %
15:15
91 %
08:30
41,0 klux70,9 klux
12:35
10:55 Std 
13.
Mrz
7,5 C-0,4 C
07:06
17,2 C
16:01
1027,8 hPa1026,3 hPa
02:51
1032,0 hPa
23:57
4,2 km/h
W
20,3 km/h
14:06  
---
70 %39 %
16:31
91 %
08:36
37,8 klux72,8 klux
12:16
9:41 Std 
14.
Mrz
7,4 C1,3 C
07:02
18,4 C
15:57
1034,0 hPa1032,0 hPa
00:02
1036,4 hPa
09:07
1,7 km/h
SO
12,4 km/h
12:07  
---
69 %36 %
15:22
90 %
06:12
37,0 klux68,0 klux
13:32
9:15 Std 
15.
Mrz
6,6 C-1,7 C
06:38
18,2 C
16:23
1029,9 hPa1025,2 hPa
16:23
1034,8 hPa
03:08
2,2 km/h
SO
16,5 km/h
13:38  
---
68 %37 %
16:28
89 %
08:23
39,7 klux72,1 klux
11:48
10:15 Std 
16.
Mrz
5,9 C-0,2 C
06:44
14,5 C
14:34
1026,4 hPa1023,8 hPa
23:55
1028,6 hPa
07:14
5,4 km/h
NW
22,1 km/h
12:24  
---
71 %47 %
14:44
88 %
08:14
36,3 klux84,3 klux
12:19
9:00 Std 
17.
Mrz
7,3 C4,9 C
00:00
8,4 C
18:30
1020,7 hPa1017,1 hPa
23:46
1023,7 hPa
00:00
21,6 km/h
W
34,3 km/h
21:00  
2,1 l/m
1:10 Stunden
85 %72 %
01:55
93 %
12:45
6,6 klux22,9 klux
13:10
--- 
18.
Mrz
6,2 C2,1 C
23:55
9,4 C
09:21
1004,5 hPa997,1 hPa
23:55
1017,1 hPa
00:01
30,2 km/h
W-SW
60,7 km/h
14:11  
6,1 l/m
5:33 Stunden
82 %70 %
06:06
93 %
16:16
7,7 klux23,6 klux
11:56
5 Min 
19.
Mrz
2,7 C-1,7 C
23:56
9,9 C
14:20
993,8 hPa990,0 hPa
14:20
998,7 hPa
23:56
11,0 km/h
W-SW
30,7 km/h
00:55  
---
1:25 Stunden
76 %48 %
14:25
89 %
22:41
26,7 klux85,3 klux
11:20
3:40 Std 
20.
Mrz
1,6 C-4,2 C
07:16
9,7 C
15:06
1000,9 hPa998,7 hPa
00:01
1004,6 hPa
23:37
5,6 km/h
NW
30,1 km/h
15:21  
0,5 l/m
1:50 Stunden
81 %46 %
15:11
91 %
02:51
34,1 klux88,2 klux
12:46
6:42 Std 
21.
Mrz
1,8 C-1,7 C
04:07
6,0 C
12:27
1007,3 hPa1004,6 hPa
00:02
1010,7 hPa
23:43
5,6 km/h
NW
30,1 km/h
10:17  
0,5 l/m
1:35 Stunden
81 %62 %
12:37
93 %
06:57
19,4 klux79,6 klux
09:52
1:45 Std 
22.
Mrz
1,1 C0,1 C
04:13
2,4 C
12:13
1008,0 hPa1005,5 hPa
22:59
1009,8 hPa
02:58
8,5 km/h
W-NW
22,5 km/h
23:59  
15,8 l/m
14:46 Stunden
94 %83 %
00:03
97 %
19:43
10,1 klux38,1 klux
12:03
--- 
23.
Mrz
2,0 C1,0 C
02:04
3,2 C
14:44
1008,0 hPa1003,5 hPa
04:09
1012,8 hPa
21:04
3,6 km/h
W-NW
20,9 km/h
06:54  
3,0 l/m
10:26 Stunden
94 %93 %
18:04
96 %
02:19
9,3 klux34,2 klux
13:59
--- 
24.
Mrz
4,6 C1,6 C
00:45
7,6 C
14:40
1010,4 hPa1008,1 hPa
11:55
1013,3 hPa
23:56
0,3 km/h
O-NO
9,0 km/h
21:41  
3,8 l/m
9:26 Stunden
96 %93 %
15:49
97 %
10:00
5,1 klux20,6 klux
14:25
--- 
25.
Mrz
8,2 C3,4 C
07:11
15,2 C
17:56
1018,1 hPa1013,3 hPa
00:01
1021,4 hPa
23:57
5,6 km/h
O
30,0 km/h
14:36  
---
76 %45 %
16:20
96 %
00:01
32,5 klux92,5 klux
13:46
5:25 Std 
26.
Mrz
9,9 C2,0 C
06:37
19,6 C
16:42
1020,4 hPa1017,8 hPa
16:42
1022,0 hPa
06:37
6,2 km/h
O-SO
32,4 km/h
17:12  
---
63 %31 %
16:52
87 %
07:52
41,7 klux75,7 klux
13:12
10:45 Std 
27.
Mrz
8,9 C0,6 C
06:58
17,3 C
17:03
1019,1 hPa1016,0 hPa
17:03
1022,1 hPa
05:08
9,6 km/h
O-SO
38,5 km/h
13:13  
---
60 %34 %
15:08
88 %
07:03
40,1 klux76,2 klux
12:53
9:51 Std 
28.
Mrz
10,3 C-0,2 C
07:44
19,3 C
15:29
1016,3 hPa1012,7 hPa
18:09
1019,6 hPa
03:59
7,2 km/h
O-SO
26,5 km/h
23:15  
---
9 Minuten
50 %30 %
16:34
77 %
07:54
42,5 klux76,4 klux
12:59
10:30 Std 
29.
Mrz
9,8 C3,5 C
07:20
16,4 C
15:45
1013,1 hPa1011,0 hPa
17:50
1014,6 hPa
07:25
5,7 km/h
W-SW
35,5 km/h
16:40  
0,3 l/m
1:06 Stunden
63 %44 %
17:05
77 %
08:00
34,1 klux86,9 klux
14:30
8:16 Std 
30.
Mrz
9,3 C3,0 C
05:26
19,1 C
16:31
1011,7 hPa1009,6 hPa
16:31
1013,2 hPa
23:57
3,3 km/h
SO
23,8 km/h
11:51  
0,3 l/m
20 Minuten
72 %42 %
16:36
90 %
08:36
32,6 klux82,7 klux
13:51
5:25 Std 
31.
Mrz
8,8 C2,3 C
05:07
14,3 C
14:52
1016,3 hPa1013,2 hPa
00:02
1020,0 hPa
23:43
3,0 km/h
SO
19,3 km/h
11:37  
---
35 Minuten
72 %56 %
14:12
89 %
05:47
22,7 klux67,0 klux
11:47
2:50 Std 



Mrz
2007

Temperatur

  

Luftdruck

  

Wind

  

Regen

  

Luftfeuchte

  

Helligkeit

Sonnen-
schein

Min

Max

Min

Max

Max

Max

Min

Max

Max

Max

6,4 C

-4,2 C

07:16 Uhr
20.03.2007

19,6 C

16:42 Uhr
26.03.2007

1016,0 hPa

990,0 hPa

14:20 Uhr
19.03.2007

1038,8 hPa

23:28 Uhr
10.03.2007

9,0 km/h

W

60,7 km/h

14:11 Uhr
18.03.2007

15,8 l/m

14:46 Stunden
22.03.2007

75 %

30 %

16:34 Uhr
28.03.2007

97 %

19:43 Uhr
22.03.2007

26,4 klux

92,5 klux

13:46 Uhr
25.03.2007

10:55 Std

am
12.03.2007

Gesamt

Gesamt

60,5 l/m

20 Tage
75:03 h

160:10 Std


Wetter-Diagramme Mrz 2007     Heinzenberg / Taunus   
TemperaturLuftfeuchte
SolarstrahlungLuftdruck
HelligkeitSonnenschein
RegenmengeRegendauer
Wind-GeschwindigkeitWind-Richtung